TimeMST,TemperatureF,Dew PointF,Humidity,Sea Level PressureIn,VisibilityMPH,Wind Direction,Wind SpeedMPH,Gust SpeedMPH,PrecipitationIn,Events,Conditions,WindDirDegrees,DateUTC
12:55 AM,12.9,12.0,96,29.93,10.0,Calm,Calm,-,N/A,,Clear,0,2012-12-08 07:55:00
1:55 AM,21.0,19.0,92,29.91,10.0,South,8.1,-,N/A,,Clear,180,2012-12-08 08:55:00
2:55 AM,19.0,15.1,85,29.90,10.0,South,8.1,-,N/A,,Clear,180,2012-12-08 09:55:00
3:55 AM,18.0,14.0,84,29.90,10.0,South,8.1,-,N/A,,Clear,180,2012-12-08 10:55:00
4:55 AM,21.9,17.1,82,29.88,10.0,SSE,10.4,-,N/A,,Clear,160,2012-12-08 11:55:00
5:55 AM,24.1,17.1,75,29.85,10.0,South,12.7,-,N/A,,Clear,170,2012-12-08 12:55:00
6:55 AM,25.0,16.0,69,29.86,10.0,South,12.7,21.9,N/A,,Clear,180,2012-12-08 13:55:00
7:55 AM,26.1,15.1,63,29.84,10.0,South,8.1,-,N/A,,Clear,170,2012-12-08 14:55:00
8:55 AM,30.9,18.0,59,29.83,10.0,South,10.4,-,N/A,,Clear,170,2012-12-08 15:55:00
9:55 AM,35.1,19.0,52,29.80,10.0,South,18.4,-,N/A,,Clear,170,2012-12-08 16:55:00
10:55 AM,37.9,19.9,48,29.77,10.0,South,10.4,-,N/A,,Clear,170,2012-12-08 17:55:00
11:55 AM,41.0,19.9,43,29.73,10.0,South,6.9,-,N/A,,Clear,180,2012-12-08 18:55:00
12:55 PM,42.1,19.0,40,29.70,10.0,SE,4.6,-,N/A,,Clear,130,2012-12-08 19:55:00
1:55 PM,45.0,18.0,34,29.65,10.0,Calm,Calm,-,N/A,,Clear,0,2012-12-08 20:55:00
2:55 PM,46.0,18.0,33,29.66,10.0,Variable,3.5,-,N/A,,Clear,0,2012-12-08 21:55:00
3:55 PM,45.0,18.0,34,29.68,10.0,ENE,6.9,-,N/A,,Scattered Clouds,70,2012-12-08 22:55:00
4:55 PM,39.9,18.0,41,29.72,10.0,ENE,4.6,-,N/A,,Overcast,70,2012-12-08 23:55:00
5:55 PM,33.1,19.9,59,29.78,10.0,NNE,16.1,-,N/A,,Scattered Clouds,20,2012-12-09 00:55:00
6:55 PM,33.1,15.1,48,29.82,10.0,North,18.4,32.2,N/A,,Partly Cloudy,360,2012-12-09 01:55:00
7:55 PM,28.9,12.9,51,29.88,10.0,North,21.9,33.4,N/A,,Partly Cloudy,360,2012-12-09 02:55:00
8:55 PM,23.0,18.0,81,29.91,10.0,North,32.2,39.1,N/A,,Mostly Cloudy,360,2012-12-09 03:55:00
9:55 PM,23.0,15.1,72,29.92,10.0,North,32.2,43.7,0.00,Snow,Light Snow,350,2012-12-09 04:55:00
10:55 PM,21.9,12.9,68,29.91,9.0,North,28.8,36.8,0.00,,Overcast,360,2012-12-09 05:55:00
11:55 PM,23.0,9.0,55,29.93,8.0,North,23.0,39.1,0.00,Snow,Light Snow,350,2012-12-09 06:55:00